Location: Vancouver
(49.2500°N, 123.1330°W)
Time: 15:01:45
(UTC-08:00)

S-56A Canister/Altair - Visible Passes

Search period start: 28 February 2015 00:00
Search period end: 10 March 2015 01:00
Orbit: 635 x 2501 km, 38.9° (Epoch: 26 February)

Date Brightness Start Highest point End Pass type
(mag) Time Alt. Az. Time Alt. Az. Time Alt. Az.
28 Feb 9.5 04:13:56 17° SSE 04:13:56 17° SSE 04:17:04 10° ESE visible
28 Feb 8.9 06:12:50 10° SW 06:16:50 24° S 06:20:25 10° SE visible
01 Mar 9.8 03:43:22 15° SE 03:43:22 15° SE 03:45:05 10° ESE visible
01 Mar 8.9 05:40:49 11° SW 05:44:47 24° S 05:48:29 10° ESE visible
02 Mar 10.2 03:12:46 11° SE 03:12:46 11° SE 03:13:05 10° ESE visible
02 Mar 8.9 05:10:14 18° SW 05:12:45 25° S 05:16:35 10° ESE visible
03 Mar 8.9 04:39:37 24° SSW 04:40:40 26° S 04:44:43 10° ESE visible
04 Mar 9.0 04:08:59 26° SSE 04:08:59 26° SSE 04:12:51 10° ESE visible
04 Mar 8.9 06:07:18 10° WSW 06:11:32 23° SSW 06:15:10 10° SE visible
05 Mar 9.4 03:38:19 23° SE 03:38:19 23° SE 03:40:59 10° ESE visible
05 Mar 8.8 05:35:46 14° WSW 05:39:30 26° S 05:43:23 10° SE visible
06 Mar 9.8 03:07:40 17° SE 03:07:40 17° SE 03:09:07 10° ESE visible
06 Mar 8.8 05:05:06 21° SW 05:07:27 28° S 05:11:36 10° SE visible
07 Mar 10.3 02:37:00 11° ESE 02:37:00 11° ESE 02:37:13 10° ESE visible
07 Mar 8.8 04:34:27 29° SSW 04:35:22 30° S 04:39:49 10° SE visible
08 Mar 8.8 05:03:47 32° S 05:03:47 32° S 05:08:01 10° ESE visible
08 Mar 9.2 07:02:08 10° WSW 07:06:03 18° SSW 07:09:20 10° SSE visible
09 Mar 9.2 04:33:08 28° SSE 04:33:08 28° SSE 04:36:13 10° ESE visible
09 Mar 9.1 06:30:35 14° WSW 06:34:02 22° SSW 06:37:47 10° SSE visible
